PDT,Max TemperatureF,Mean TemperatureF,Min TemperatureF,Max Dew PointF,MeanDew PointF,Min DewpointF,Max Humidity, Mean Humidity, Min Humidity, Max Sea Level PressureIn, Mean Sea Level PressureIn, Min Sea Level PressureIn, Max VisibilityMiles, Mean VisibilityMiles, Min VisibilityMiles, Max Wind SpeedMPH, Mean Wind SpeedMPH, Max Gust SpeedMPH,PrecipitationIn, CloudCover, Events, WindDirDegrees
2013-8-1,76,63,50,54,47,39,83,57,31,30.06,29.99,29.93,10,10,7,28,8,32,0.03,4,Rain-Thunderstorm,283
2013-8-2,79,61,43,44,39,27,89,53,16,30.10,30.05,30.00,10,10,10,16,5,23,0.00,0,,264
2013-8-3,86,64,41,44,37,28,82,48,13,30.09,30.03,29.95,10,10,10,15,5,21,0.00,0,,313
2013-8-4,90,68,45,51,41,35,76,46,15,30.03,29.96,29.88,10,10,10,16,6,22,0.00,0,,314
2013-8-5,91,72,52,51,43,29,66,39,11,29.98,29.94,29.88,10,10,10,18,5,25,0.00,0,,305
2013-8-6,94,72,50,45,40,32,71,42,12,29.99,29.94,29.87,10,10,10,18,6,24,0.00,0,,339
2013-8-7,87,70,53,42,38,30,55,34,13,29.99,29.95,29.92,10,10,10,22,6,29,T,1,,299
2013-8-8,87,69,51,48,40,33,59,38,16,29.97,29.92,29.86,10,10,5,14,5,18,T,2,,236
2013-8-9,87,70,52,54,47,39,83,52,20,29.99,29.89,29.79,10,10,10,24,4,32,T,3,Rain-Thunderstorm,216
2013-8-10,80,62,43,49,47,42,100,66,32,30.04,29.98,29.93,10,10,10,26,6,31,T,1,Rain-Thunderstorm,268
2013-8-11,82,64,45,48,44,41,86,56,25,30.05,30.00,29.93,10,10,10,16,6,24,0.00,0,,285
2013-8-12,87,68,48,49,45,39,86,54,21,30.02,29.98,29.92,10,10,10,18,6,25,T,0,Thunderstorm,304
2013-8-13,90,70,49,47,44,38,80,48,16,30.07,29.99,29.91,10,10,10,20,6,23,0.00,0,,274
2013-8-14,93,73,52,48,43,38,77,47,17,29.96,29.92,29.85,10,10,8,18,6,24,0.00,0,,304
2013-8-15,91,70,48,52,45,40,74,46,17,29.97,29.92,29.85,10,10,10,23,5,31,0.00,0,,323
2013-8-16,90,72,54,62,53,48,83,56,29,30.02,29.98,29.93,10,10,4,22,5,29,0.07,2,Rain-Thunderstorm,309
2013-8-17,87,69,50,54,50,46,96,62,27,30.07,30.01,29.94,10,10,10,21,5,26,0.00,1,,323
2013-8-18,90,70,49,52,46,40,86,52,18,30.10,30.05,29.98,10,10,10,15,5,20,0.00,0,,354
2013-8-19,91,70,49,48,45,42,77,48,19,30.07,30.02,29.95,10,10,10,18,7,24,0.00,0,,328
2013-8-20,87,67,46,45,31,13,86,47,7,30.08,30.01,29.94,10,10,7,16,6,21,0.00,0,,330
2013-8-21,88,68,48,37,31,27,46,30,14,30.03,29.98,29.91,10,10,9,17,6,22,0.00,0,,305
2013-8-22,85,69,52,58,44,31,90,56,22,30.00,29.93,29.89,10,9,2,29,5,41,0.11,2,Rain-Thunderstorm,171
2013-8-23,83,67,50,52,48,43,89,58,26,29.93,29.86,29.80,10,10,4,18,7,26,0.02,2,Rain,298
2013-8-24,82,65,47,57,49,41,93,60,26,29.89,29.84,29.75,10,10,2,17,4,24,0.07,3,Rain-Thunderstorm,335
2013-8-25,74,62,49,57,53,49,93,70,46,29.98,29.90,29.81,10,8,0,32,4,39,0.86,4,Fog-Rain-Thunderstorm,332
2013-8-26,77,64,50,50,48,46,93,65,36,29.97,29.94,29.90,10,10,10,17,7,23,T,2,,172
2013-8-27,86,64,42,52,46,40,93,57,20,29.98,29.88,29.76,10,10,10,18,5,22,0.00,0,,295
2013-8-28,89,70,50,54,46,34,89,52,15,29.88,29.84,29.80,10,10,10,18,6,24,0.00,1,,246
2013-8-29,84,70,56,54,50,42,86,55,23,30.06,29.95,29.87,10,10,10,23,7,31,0.00,1,,226
2013-8-30,83,67,50,51,49,45,89,58,26,30.14,30.07,29.99,10,10,10,15,5,20,0.00,0,,332
2013-8-31,88,68,48,52,49,46,93,59,24,30.05,29.95,29.84,10,10,10,18,6,24,0.00,0,,323